Overview Statistics Trail Chart Weather Telemetry Raw packets
 

This is the latest recevied weather packets stored in our database for station/object K7CTM. If no packets are shown the sender has not sent any weather packets the latest 10 day(s).

<< 100 101 102 103 104 105 106 >>
Time Temp. Humidity Pressure Rain* Wind** Luminosity Snow
1787861812 32.22° C 23% 1026.4 hPa 0 mm - 212 W/m² -
1787861510 32.78° C 22% 1026.6 hPa 0 mm - 167 W/m² -
1787861206 32.78° C 23% 1026.4 hPa 0 mm - 182 W/m² -
1787860904 33.33° C 23% 1026.8 hPa 0 mm - 214 W/m² -
1787860600 33.33° C 23% 1026.6 hPa 0 mm - 258 W/m² -
1787860295 33.33° C 22% 1026.8 hPa 0 mm - 689 W/m² -
1787859990 32.78° C 23% 1026.8 hPa 0 mm - 435 W/m² -
1787859685 33.33° C 24% 1026.6 hPa 0 mm - 356 W/m² -
1787859385 32.78° C 25% 1026.9 hPa 0 mm - 607 W/m² -
1787859081 32.22° C 25% 1027 hPa 0 mm - 642 W/m² -
1787858776 32.22° C 24% 1027 hPa 0 mm - 346 W/m² -
1787858472 32.22° C 25% 1027.2 hPa 0 mm - 558 W/m² -
1787858172 32.22° C 25% 1027.4 hPa 0 mm - 660 W/m² -
1787857867 32.78° C 25% 1027.3 hPa 0 mm - 735 W/m² -
1787857564 32.22° C 25% 1027.4 hPa 0 mm - 815 W/m² -
1787857262 31.67° C 26% 1027.4 hPa 0 mm - 377 W/m² -
1787856962 31.67° C 26% 1027.7 hPa 0 mm - 524 W/m² -
1787856656 31.67° C 27% 1027.8 hPa 0 mm - 795 W/m² -
1787856346 31.11° C 27% 1027.9 hPa 0 mm - 516 W/m² -
1787856042 30.56° C 28% 1027.9 hPa 0 mm - 551 W/m² -
1787855740 30.56° C 28% 1028 hPa 0 mm - 570 W/m² -
1787855436 30.56° C 28% 1028.1 hPa 0 mm - 613 W/m² -
1787855131 30.56° C 29% 1028.3 hPa 0 mm - 569 W/m² -
1787854826 29.44° C 30% 1028.3 hPa 0 mm - 557 W/m² -
1787854526 30° C 30% 1028.6 hPa 0 mm - 415 W/m² -

* Rain latest hour (hover to see other rain measurements)
** Current wind speed in m/s (hover to see current wind gust speed)